Regional Weather Roundup
Issued by NWS

Home | Current Version | Previous Version | Text Only | Print | Product List | Glossary On
Versions: 1 2 3 4 5 6 7 8 9 10 11 12 13 14 15 16 17 18 19 20 21 22 23 24 25 26 27 28 29 30 31 32 33 34 35 36 37 38 39 40 41 42 43 44 45 46 47 48 49 50
000
ASUS44 KLIX 291110
RWRLA
LOUISIANA WEATHER ROUNDUP
NATIONAL WEATHER SERVICE NEW ORLEANS LA
500 AM CST MON DEC 29 2014

NOTE: "FAIR" INDICATES FEW OR NO CLOUDS BELOW 12,000 FEET WITH NO
      SIGNIFICANT WEATHER AND/OR OBSTRUCTIONS TO VISIBILITY.
      SKY/WX - SKY CONDITION AND SIGNIFICANT WEATHER.
      TMP - AIR TEMPERATURE.    DP   - DEWPOINT TEMPERATURE.
      RH  - RELATIVE HUMIDITY.  PRES - PRESSURE.
      HX  - HEAT INDEX.         WCI  - WIND CHILL INDEX.

*  THESE STATIONS ARE NOT NWS OR FAA STATIONS AND ARE NOT UNDER
   NWS QUALITY CONTROL.

LAZ040-048-061>063-065-066-069-291200-
SOUTHEAST LOUISIANA

CITY           SKY/WX    TMP DP  RH WIND       PRES   REMARKS
N.O. AUDUBON     N/A     55  55 100 MISG        N/A
N.O. INTL ARPT CLOUDY    55  53  93 N7        30.08S FOG
N.O. LAKEFRONT CLOUDY    57  54  89 NW13      30.08S
N.O. DOWNTOWN* CLOUDY    55  52  88 N3        30.09R
SLIDELL        FOG       55  53  93 N5        30.08R VSB 3/4
BATON ROUGE    CLOUDY    49  48  97 CALM      30.10R FOG
BOOTHVILLE     CLOUDY    59  58  96 E7        30.05S
BELLE CHASSE   CLOUDY    58  56  93 NW6       30.08R
BOGALUSA*        N/A     53  50  90 N5        30.11R
GALLIANO*      CLOUDY    60  59  96 MISG      30.08S
NEW ROADS*     CLOUDY    47  47  98 W3        30.12R FOG
GONZALES*      CLOUDY    52  52 100 N3        30.09R
HAMMOND*       NOT AVBL
HOUMA*         CLOUDY    57  56  99 CALM      30.08R FOG
PORT FOURCHON* CLOUDY    63  61  94 CALM      30.10R

$$

LAZ041-044-053-054-291200-
SOUTHWEST LOUISIANA

CITY           SKY/WX    TMP DP  RH WIND       PRES   REMARKS
LAKE CHARLES   CLOUDY    48  47  96 NE5       30.11S FOG
LAFAYETTE      CLOUDY    48  47  96 N7        30.11R FOG
PATTERSON      CLOUDY    54  52  94 N5        30.10R
SALT POINT       N/A     63  53  70 CALM      30.08R
NEW IBERIA     CLOUDY    50  48  93 N7        30.11S FOG
CHENAULT AIRPK NOT AVBL

$$

LAZ027-028-291200-
CENTRAL LOUISIANA

CITY           SKY/WX    TMP DP  RH WIND       PRES   REMARKS
FORT POLK      CLOUDY    44  43  99 N5        30.12R FOG
ALEXANDRIA INT CLOUDY    44  44 100 N3        30.11R FOG
ALEXANDRIA     CLOUDY    44  43  96 NE3       30.11S

$$

LAZ001-002-291200-
NORTHWEST LOUISIANA

CITY           SKY/WX    TMP DP  RH WIND       PRES   REMARKS
SHREVEPORT     DRIZZLE   42  41  96 N6        30.15S FOG
BARKSDALE AFB  CLOUDY    43  43 100 N5        30.16S FOG
DTN SHREVEPORT CLOUDY    41  40  96 N5        30.16S FOG

$$

LAZ014-016-291200-
NORTHEAST LOUISIANA

CITY           SKY/WX    TMP DP  RH WIND       PRES   REMARKS
MONROE         CLOUDY    42  32  67 N10       30.16R
TALLULAH       CLOUDY    44  42  93 N3        30.13R

$$



USA.gov is the U.S. government's official web portal to all federal, state and local government web resources and services.